DMSP 5D-2 F13 DEB, 40558

Orbit data source: Space-Track

DMSP 5D-2 F13 DEB, 40558 is space debris in SSO originally from a launch on Fri, 24 Mar 1995 UTC launched from the Air Force Western Test Range (AFWTR). Debris objects in space refer to the collection of defunct objects orbiting the Earth. Examples of debris include non-operational satellites, rocket bodies, and fragments generated from explosions, collisions, or faulty payload assembly.

Loading next visibility...
Identifier
40558, 1995-015DR
Orbit
SSO
Country
Flag of USUS
Related business
Manufacturer
Unknown
Mission
Spacecraft
Bus & Motor
Unknown
Mass
Unknown
Launch date (UTC)
1995-03-24 (31 years ago)
Launch vehicle
Unknown
Launch site
Air Force Western Test Range (AFWTR)
Object type
Payload
Rocket body
Debris
Shape & HBR
Unknown shape, 0.1 m
Radar Cross Section
Medium (>0.1 m² and <1 m²)

Expand to show TLE details & history
Last TLE update: 10 hours ago

TLE from 10 hours ago
0 DMSP 5D-2 F13 DEB
1 40558U 95015DR  26257.25402314  .00002144  00000-0  92329-3 0  9994
2 40558  98.9679 253.4856 0042492 162.7990 197.4639 14.25206372589238
Epoch: 2026-09-14T06:05Z
TLE epoch observation values (Epoch: 2026-09-14T06:05:47.599Z)
Latitude
-0.00007°
Longitude
168.80032°
Altitude
839.857 km
Speed
7.418 km/s
True Right ascension
16h 53m 56s
True Declination
0° 00' 00"
Sunlit
Object was in daylight at epoch
Visualization orbit readout
Latitude
Unknown
Longitude
Unknown
Altitude
Unknown
Speed
Unknown
Apparent Right ascension
Unknown
Apparent Declination
Unknown
Sunlit
N/A
Visualization observer readout
Local Sidereal Time
08:32:44
Azimuth
Unknown
Elevation
Unknown
Doppler factor
Unknown
Orbital elements
Apogee altitude
835.485 km
Perigee altitude
774.441 km
Semi-major axis
7,183.1 km
Eccentricity
0.00425
Inclination
98.9679°
RAAN
253.4856°
Arg. of periapsis
162.799°
True anomaly
197.31851°
Mean anomaly
197.4639°
Eccentric anomaly
197.39113°
Mean motion
3.56513 °/min
Orbital period
100.98 mins
BSTAR
0.00092329
Loading maneuver chart data...
Computing Atmospheric mass density...
Loading historical data...
Loading historical data...
Loading historical data...
Loading historical data...
Loading historical data...
Loading historical data...
Loading historical data...

Documentation

Showing up to 5 results
|